Location: Beadle
(51.4667°N, 109.0000°W)
Time: 18:20:33
(UTC+00:00)

O/OREOS (USA 219) - Pass Details

Date: 03 July 2022
Orbit: 621 x 646 km, 72.0° (Epoch: 22 May)

Event Time Altitude Azimuth Distance (km) Brightness Sun altitude
Rises 04:36:56 0° 337° (NNW) 2,963 ? -7.4°
Reaches altitude 10° 04:40:48 10° 10° (N) 2,054 ? -7.8°
Maximum altitude 04:42:29 12° 31° (NNE) 1,935 ? -7.9°
Drops below altitude 10° 04:44:11 10° 53° (NE) 2,053 ? -8.1°
Sets 04:48:02 0° 86° (E) 2,961 ? -8.4°
